TimeCST,TemperatureF,Dew PointF,Humidity,Sea Level PressureIn,VisibilityMPH,Wind Direction,Wind SpeedMPH,Gust SpeedMPH,PrecipitationIn,Events,Conditions,WindDirDegrees,DateUTC
12:30 AM,8.6,5.0,85,29.94,2.5,West,8.1,-,N/A,,Clear,260,2013-02-23 06:30:00
12:40 AM,10.4,8.6,92,29.93,4.0,West,5.8,-,N/A,,Clear,280,2013-02-23 06:40:00
12:53 AM,9.0,5.0,84,30.06,4.0,Calm,Calm,-,N/A,,Clear,0,2013-02-23 06:53:00
1:53 AM,7.0,3.9,87,30.05,4.0,West,6.9,-,N/A,,Clear,270,2013-02-23 07:53:00
2:53 AM,7.0,3.9,87,30.02,5.0,WSW,8.1,-,N/A,,Scattered Clouds,250,2013-02-23 08:53:00
3:53 AM,10.0,7.0,87,29.99,6.0,West,10.4,-,N/A,,Clear,270,2013-02-23 09:53:00
4:53 AM,5.0,1.9,87,29.99,4.0,WSW,8.1,-,N/A,,Clear,250,2013-02-23 10:53:00
5:53 AM,6.1,3.0,87,29.98,4.0,WSW,6.9,-,N/A,,Clear,240,2013-02-23 11:53:00
6:53 AM,3.9,1.0,88,29.98,5.0,WSW,8.1,-,N/A,,Clear,240,2013-02-23 12:53:00
7:53 AM,5.0,1.9,87,29.98,4.0,WSW,3.5,-,N/A,,Clear,250,2013-02-23 13:53:00
8:53 AM,6.1,3.0,87,29.99,4.0,WSW,5.8,-,N/A,,Clear,250,2013-02-23 14:53:00
9:53 AM,15.1,10.9,84,29.97,5.0,WNW,8.1,-,N/A,,Clear,290,2013-02-23 15:53:00
10:53 AM,19.9,15.1,81,29.95,5.0,SW,4.6,-,N/A,,Haze,230,2013-02-23 16:53:00
11:53 AM,26.1,19.0,75,29.94,6.0,SW,5.8,-,N/A,,Haze,220,2013-02-23 17:53:00
12:53 PM,32.0,23.0,69,29.90,8.0,WSW,4.6,-,N/A,,Clear,240,2013-02-23 18:53:00
1:53 PM,36.0,27.0,70,29.86,9.0,South,4.6,-,N/A,,Clear,190,2013-02-23 19:53:00
2:53 PM,37.0,28.0,70,29.83,10.0,SW,9.2,-,N/A,,Clear,220,2013-02-23 20:53:00
3:53 PM,37.9,28.0,68,29.81,10.0,SSW,6.9,-,N/A,,Clear,210,2013-02-23 21:53:00
4:53 PM,36.0,28.0,73,29.82,10.0,South,8.1,-,N/A,,Clear,180,2013-02-23 22:53:00
5:53 PM,34.0,28.0,79,29.83,8.0,South,6.9,-,N/A,,Clear,190,2013-02-23 23:53:00
6:53 PM,32.0,26.1,79,29.84,9.0,South,5.8,-,N/A,,Clear,190,2013-02-24 00:53:00
7:53 PM,30.9,26.1,82,29.86,8.0,Calm,Calm,-,N/A,,Clear,0,2013-02-24 01:53:00
8:53 PM,28.0,25.0,88,29.87,6.0,South,3.5,-,N/A,,Clear,170,2013-02-24 02:53:00
9:53 PM,24.1,23.0,96,29.86,3.0,SE,4.6,-,N/A,,Clear,130,2013-02-24 03:53:00
10:00 PM,24.8,23.0,93,29.76,2.5,SE,3.5,-,N/A,,Clear,130,2013-02-24 04:00:00
10:23 PM,24.8,21.2,86,29.76,1.2,Calm,Calm,-,N/A,,Clear,0,2013-02-24 04:23:00
10:41 PM,21.2,19.4,93,29.76,0.5,Calm,Calm,-,N/A,Fog,Light Freezing Fog,0,2013-02-24 04:41:00
10:53 PM,19.9,18.0,92,29.87,0.2,Calm,Calm,-,N/A,Fog,Light Freezing Fog,0,2013-02-24 04:53:00
11:05 PM,21.2,19.4,93,29.77,0.2,Calm,Calm,-,N/A,Fog,Light Freezing Fog,0,2013-02-24 05:05:00
11:35 PM,19.4,15.8,86,29.77,0.2,SE,4.6,-,N/A,Fog,Light Freezing Fog,140,2013-02-24 05:35:00
11:53 PM,17.1,15.1,92,29.86,0.2,SE,4.6,-,N/A,Fog,Light Freezing Fog,130,2013-02-24 05:53:00